Theta_e
301 302 304 304 306 308 309 306 310 309 309 310 310 311 311 310 306 305 306 304 303 305 304 305 309 315 315 312 312 314 321 325 325 326 326 324 326 326 324 325 319 317 318 320 322
300 300 300 300 301 305 307 305 302 305 305 309 309 309 309 310 309 309 308 304 304 304 303 303 308 311 312 311 311 314 318 323 323 323 324 324 325 326 323 325 324 320 319 320 322
300 300 300 300 300 301 307 308 306 304 308 308 308 307 308 308 308 308 303 303 301 301 303 304 306 308 310 311 312 314 317 319 322 321 321 323 323 323 323 326 325 324 325 323 320
299 300 300 300 300 301 306 307 307 307 308 307 307 307 307 307 309 304 303 303 303 302 302 302 305 306 309 312 312 315 316 316 318 319 320 321 322 322 321 324 324 323 323 322 324
298 298 299 300 300 301 307 308 307 306 308 307 306 307 306 305 306 306 306 304 302 303 303 307 305 306 309 310 311 311 314 315 315 316 318 319 320 322 322 321 322 321 321 321 321
296 296 297 298 299 300 302 307 307 306 308 308 307 306 306 305 306 306 306 305 300 302 310 309 305 305 307 309 310 313 310 311 311 312 314 316 317 318 319 319 320 317 318 319 319
296 296 296 296 296 299 300 303 307 307 308 308 307 307 306 306 305 305 306 306 302 300 300 306 305 304 306 308 308 309 310 310 313 309 311 313 315 316 316 317 317 317 317 318 317
295 295 296 296 296 297 299 301 301 306 307 307 307 306 306 305 304 305 304 303 302 301 299 299 304 305 304 305 306 306 309 314 314 314 310 311 318 319 316 315 315 316 317 317 317
294 294 295 296 297 297 299 301 301 302 304 304 305 304 304 303 304 302 300 299 299 300 299 299 301 303 305 306 307 307 310 311 312 313 312 312 316 318 315 314 315 315 316 317 316
292 293 295 298 298 299 301 302 302 303 303 302 302 302 302 304 302 300 300 300 300 298 298 299 302 304 304 306 308 309 308 307 308 309 309 312 313 316 312 308 312 313 314 313 313
292 292 297 302 302 303 302 302 303 303 301 302 303 303 303 303 302 299 296 297 300 298 300 300 302 303 304 305 306 307 307 307 307 307 308 310 313 314 315 312 311 310 310 309 309
291 291 292 293 301 303 302 302 301 301 299 299 300 302 302 301 301 301 302 298 299 301 300 301 301 303 303 304 304 305 305 306 306 305 305 308 309 310 310 310 310 310 309 309 310
291 290 291 291 296 302 302 301 299 296 298 298 298 297 297 296 299 300 300 300 299 301 301 302 303 301 301 301 302 304 304 306 305 305 303 303 305 307 307 306 305 307 307 307 308
290 290 289 291 297 298 301 299 299 296 300 300 297 297 295 296 298 295 296 300 299 300 301 301 302 302 300 300 301 302 304 304 304 304 304 303 306 306 307 307 305 305 306 305 305
291 290 290 289 290 296 295 297 298 297 302 298 296 294 294 295 296 296 296 297 299 300 300 301 300 299 300 301 300 301 302 303 303 304 303 302 302 305 306 305 306 306 305 306 303
294 291 290 290 289 293 292 296 297 301 301 298 296 295 299 298 296 295 296 296 297 298 299 300 300 300 301 298 299 301 301 301 301 303 305 304 304 306 306 306 306 305 304 303 300
293 292 291 289 290 292 294 296 300 301 298 300 298 297 299 299 298 296 296 297 299 301 301 300 300 300 300 301 301 301 300 303 304 304 305 303 304 305 304 304 303 304 302 298 299
293 291 290 289 289 292 295 298 297 297 298 297 298 300 298 297 298 296 296 297 298 298 300 301 302 301 300 299 301 301 302 305 306 306 304 300 302 305 304 303 302 299 297 297 298
293 292 291 290 292 294 295 295 296 295 298 299 297 294 298 296 296 297 297 297 296 297 299 301 301 296 295 295 299 302 302 303 304 303 307 303 302 303 304 301 298 297 296 295 295
293 293 291 290 292 293 294 294 295 296 297 297 294 295 296 298 298 298 297 299 297 297 298 298 300 298 296 293 295 300 301 304 304 306 306 305 307 307 306 302 299 296 297 294 294
294 292 291 288 290 292 292 292 290 293 295 296 296 296 296 297 296 296 297 299 299 298 297 299 298 298 293 295 299 301 303 302 304 306 307 307 307 302 301 300 301 298 296 294 294
294 293 290 289 291 289 290 289 292 294 295 295 295 293 293 294 296 297 298 298 296 297 299 299 300 301 300 294 292 295 302 303 306 307 305 306 307 295 295 295 297 295 294 294 295
294 293 290 290 292 289 289 289 292 292 291 292 293 294 294 293 293 294 294 296 295 297 299 299 301 301 300 296 292 297 296 299 302 303 305 308 304 296 295 295 295 295 294 294 293
294 293 288 289 289 289 289 289 289 290 292 292 293 292 291 290 291 293 293 295 293 295 293 294 299 300 300 301 296 297 297 297 299 303 302 304 304 303 297 297 296 295 294 293 292
294 292 293 291 288 290 290 289 290 290 290 291 291 291 290 289 290 291 291 291 291 294 291 291 294 293 294 295 297 299 299 298 298 298 300 300 300 298 297 297 296 295 295 294 292
294 290 287 290 287 290 290 289 290 290 289 289 290 290 290 289 290 290 289 289 289 290 289 291 291 291 294 295 296 298 298 298 299 299 299 298 299 297 299 297 296 295 295 294 291
292 293 292 292 288 289 290 290 290 291 289 289 290 290 289 289 290 289 289 289 289 288 288 288 291 291 290 293 291 295 295 296 297 292 293 297 295 293 294 294 289 289 291 290 288
Wind_Speed
15 17 20 20 20 24 25 23 23 23 24 25 26 26 28 30 30 28 28 26 27 22 18 21 18 17 24 15 20 14 10 13 19 19 20 5 12 16 11 14 9 11 10 9 8
16 16 18 19 20 20 24 25 24 25 25 25 26 27 29 31 32 35 27 18 11 16 22 21 16 15 14 15 11 10 10 24 18 20 18 19 21 21 8 14 16 12 18 19 16
19 16 16 17 18 19 19 23 22 19 22 24 28 29 29 30 30 14 4 2 6 12 14 17 16 16 19 15 15 11 23 18 21 23 20 20 18 18 15 19 21 17 20 23 23
21 21 19 19 19 18 19 20 22 20 20 23 24 26 29 22 9 8 14 22 28 23 13 19 15 15 14 18 23 17 27 29 29 25 11 15 23 17 23 27 23 19 15 17 24
21 23 22 22 20 17 17 20 21 19 20 21 22 24 27 13 20 26 26 22 18 11 14 19 22 22 19 13 22 22 21 23 24 29 25 23 24 24 27 23 23 23 20 19 22
21 22 22 22 23 21 18 20 22 21 21 22 22 24 24 22 25 19 26 24 15 11 12 17 10 18 14 20 16 12 18 26 27 25 17 17 25 29 25 27 27 22 24 27 29
20 22 22 22 22 22 20 22 21 23 22 26 25 23 32 34 30 26 29 31 26 17 17 17 20 9 6 13 19 22 18 15 23 16 16 11 22 30 30 28 30 32 29 31 30
23 23 24 23 23 23 22 22 23 21 23 24 26 23 22 27 28 22 19 23 24 22 24 17 15 22 14 8 5 6 10 20 21 23 13 16 29 20 25 34 32 35 35 32 33
24 25 25 25 24 24 23 22 21 21 23 26 23 12 18 14 12 12 13 16 15 11 16 9 12 13 11 15 12 12 18 23 20 14 11 15 26 20 18 18 28 30 31 31 33
23 24 24 24 25 25 22 21 17 16 17 11 4 6 14 4 15 19 23 20 8 4 7 10 9 9 12 15 19 26 23 17 19 7 10 11 24 24 14 11 21 23 24 26 31
24 23 22 23 26 22 23 21 12 7 11 14 22 29 36 27 19 12 10 10 6 6 9 12 10 18 31 24 27 20 17 23 22 6 10 17 24 30 24 25 24 26 24 25 27
22 23 23 22 16 16 20 13 12 14 17 21 31 32 32 29 21 26 24 8 7 12 9 6 20 27 17 16 21 21 20 24 23 4 9 11 20 26 21 22 29 30 30 33 31
23 23 23 22 16 15 16 14 14 15 9 13 8 7 4 6 5 8 5 8 15 16 12 16 13 3 15 17 20 22 23 27 25 13 5 4 15 25 23 24 29 34 36 34 33
23 23 22 20 9 14 9 18 14 12 5 5 2 0 3 4 5 7 4 8 5 10 16 15 18 24 19 19 17 21 22 22 19 14 14 6 13 25 22 20 17 25 29 32 35
23 22 22 20 16 11 14 12 11 5 6 2 1 3 5 4 10 2 2 8 12 12 6 7 6 4 13 22 10 18 10 18 17 15 17 14 8 24 14 21 23 19 26 28 20
25 21 22 18 16 10 13 10 5 3 9 3 2 3 7 4 3 4 2 6 2 8 17 23 18 11 18 4 6 16 10 9 3 10 10 27 16 23 18 27 23 17 18 19 16
25 25 23 21 13 8 9 4 2 5 4 2 2 4 10 8 8 2 2 4 6 5 8 11 20 20 15 19 16 6 9 4 5 7 11 5 13 23 5 4 7 14 8 6 9
28 30 25 18 15 4 4 0 6 2 6 3 4 13 14 15 6 2 5 10 9 12 9 7 8 6 9 22 10 14 15 6 7 6 8 7 12 15 11 12 13 5 7 9 8
29 27 26 16 4 4 2 3 5 5 3 7 16 15 6 2 4 7 6 9 5 10 10 4 6 1 2 1 8 12 11 15 4 2 4 8 15 17 19 11 3 7 12 10 11
26 26 21 2 4 3 2 7 5 3 4 5 10 8 12 9 6 9 9 5 5 5 8 5 8 5 4 1 2 7 2 5 5 6 9 11 12 12 5 5 5 7 9 9 10
24 11 8 1 4 4 4 7 5 5 4 5 8 11 12 11 12 11 9 9 3 5 3 3 7 4 1 7 13 6 5 6 2 6 4 6 5 6 8 9 8 9 11 8 8
22 4 10 8 2 2 3 5 3 6 4 5 5 11 16 18 13 12 12 6 9 3 7 5 4 8 11 1 2 3 12 6 4 4 8 7 10 5 8 9 4 10 12 9 7
10 15 14 13 5 6 5 4 6 5 8 4 6 6 5 5 7 7 11 5 13 6 7 5 3 3 3 2 1 3 6 6 8 2 8 6 4 9 14 12 13 11 8 6 7
15 4 8 15 12 6 6 6 6 10 7 8 6 4 5 10 12 7 13 2 9 6 17 12 4 5 9 6 1 4 7 9 9 6 11 16 16 14 7 9 7 7 6 5 5
15 8 14 5 8 13 11 8 12 8 10 9 4 9 7 4 4 4 1 6 7 2 5 4 5 9 15 13 9 6 6 10 12 16 10 11 8 1 6 2 3 5 4 3 5
24 6 7 10 14 16 18 13 19 17 9 7 12 17 9 8 11 7 2 2 5 3 5 0 4 6 7 8 10 11 13 12 15 16 18 20 20 10 15 4 3 5 4 2 3
31 31 29 17 7 8 12 21 23 21 15 22 16 12 12 21 18 16 14 12 10 6 4 3 3 5 7 9 15 8 5 5 4 9 5 5 6 11 9 11 11 11 9 6 4
Wind_Direction
318 318 311 313 311 314 313 314 315 319 322 324 325 324 323 321 315 308 297 299 285 273 263 250 257 233 216 221 213 208 237 234 227 232 238 239 244 239 246 242 221 213 227 228 220
329 325 323 317 314 311 308 309 306 312 314 318 322 324 325 320 315 305 301 283 289 276 241 238 228 219 210 218 212 204 230 237 233 244 254 251 241 248 232 227 237 236 233 233 232
336 334 330 320 320 318 305 307 308 315 316 318 320 318 317 322 321 299 278 338 339 338 254 228 227 217 227 217 209 216 237 236 242 246 251 251 241 239 239 251 251 239 239 237 235
339 337 335 328 328 324 314 304 303 314 314 320 322 321 317 316 292 342 300 294 292 294 273 232 219 216 230 225 222 248 241 240 243 243 237 239 249 236 238 249 260 252 250 234 239
346 344 340 328 327 325 316 305 306 306 311 321 327 321 318 288 270 303 296 296 296 288 245 221 210 215 231 229 233 240 252 250 246 246 245 253 249 251 249 252 254 253 246 245 255
347 342 336 331 331 320 305 299 298 305 303 310 316 316 301 269 294 296 302 297 288 272 255 226 230 228 242 243 225 245 243 258 256 253 247 238 253 251 250 252 254 244 245 252 253
345 338 336 337 329 321 311 293 291 295 297 300 305 307 285 265 293 290 285 276 269 276 261 251 234 235 267 249 252 252 253 251 256 266 253 237 262 244 247 247 248 251 248 250 248
347 343 340 337 329 325 315 305 300 289 297 297 299 288 271 284 297 302 294 289 283 268 247 251 248 241 251 285 279 255 234 248 246 232 240 190 259 251 245 235 242 249 249 249 246
348 346 344 339 333 329 320 314 315 302 290 289 285 270 274 282 304 325 322 315 302 268 236 235 225 231 228 235 254 240 251 241 256 218 208 198 256 264 251 232 238 245 247 246 248
348 350 347 344 338 333 331 325 321 311 294 301 259 273 259 276 309 304 306 300 268 275 219 212 216 219 226 215 227 237 244 259 265 202 215 221 249 257 251 235 243 250 252 251 250
348 352 352 351 350 359 356 2 2 321 320 275 274 261 278 287 299 289 293 298 234 223 212 202 218 224 225 221 238 254 256 252 252 227 209 227 243 256 253 232 249 251 254 252 252
346 346 346 348 349 354 358 25 4 318 304 285 270 272 274 281 281 275 265 277 211 234 222 218 232 240 257 252 241 244 245 256 264 208 218 237 248 264 261 246 249 254 254 252 254
339 343 342 344 346 348 348 6 342 330 281 308 267 269 304 307 266 302 229 238 247 255 236 238 242 206 266 252 238 239 238 246 257 265 226 285 271 267 260 250 253 253 254 256 253
334 335 339 341 341 331 330 331 322 331 289 277 275 294 315 284 256 292 295 204 216 266 251 257 263 261 261 253 239 253 239 254 257 262 257 185 276 271 262 259 242 245 250 251 249
331 332 334 339 331 325 325 334 324 325 305 72 210 308 300 255 314 226 217 201 241 238 219 245 264 312 244 246 211 246 256 244 249 245 265 227 249 268 261 254 254 249 238 244 244
334 334 326 326 322 323 335 336 336 218 248 317 288 352 344 293 252 280 243 222 281 255 243 254 258 253 248 315 277 263 257 250 242 244 245 243 228 271 252 252 257 255 250 245 233
334 332 329 318 314 319 348 339 258 227 11 326 335 337 326 313 312 258 234 224 246 285 275 285 249 241 229 244 257 253 233 226 229 218 238 256 214 240 63 141 289 259 230 198 203
324 331 324 308 304 322 50 243 222 263 259 358 329 316 305 308 272 272 282 280 241 242 278 287 292 215 216 223 219 216 219 206 221 215 257 161 215 235 255 279 255 211 170 153 148
315 324 324 300 324 128 146 208 236 222 330 335 317 301 286 311 280 305 269 268 265 204 211 243 252 345 195 263 228 232 232 214 270 271 278 217 246 280 265 254 191 166 154 134 128
309 315 304 358 89 131 212 244 246 249 313 296 287 260 284 296 324 323 296 275 266 224 261 263 266 277 292 175 216 233 282 174 196 223 231 239 256 249 291 253 203 173 155 125 125
302 302 264 261 31 159 223 235 280 293 257 228 274 278 290 294 284 283 266 275 328 316 327 296 226 231 219 208 217 202 211 227 261 229 242 256 241 13 338 337 250 182 154 132 126
282 242 235 229 235 197 222 208 282 264 257 288 289 279 271 271 272 256 261 262 0 301 281 230 252 234 243 24 342 321 229 211 244 185 232 276 259 19 345 302 261 155 132 127 122
240 248 228 221 234 217 231 255 255 242 257 248 261 253 355 317 311 283 300 62 357 332 347 352 241 257 226 161 75 222 252 250 242 250 243 238 183 50 46 50 84 94 97 104 104
249 234 191 204 232 214 229 235 232 219 227 225 243 278 289 291 291 288 296 338 337 357 17 3 296 281 284 335 348 212 216 234 252 256 254 243 273 306 50 63 41 68 73 75 68
248 232 235 205 220 217 211 207 218 217 218 221 237 229 211 251 273 257 272 319 316 354 28 52 296 4 315 297 268 264 257 211 219 244 245 272 271 33 36 314 112 30 23 40 38
266 225 219 246 233 218 211 205 232 228 203 217 224 241 206 214 229 257 242 226 259 296 346 177 282 325 304 332 338 270 264 249 242 236 249 257 264 345 318 299 59 348 310 345 14
272 271 239 232 198 214 208 220 231 231 228 229 217 223 197 226 232 233 233 246 250 270 282 259 254 288 273 301 328 280 276 255 102 35 341 293 337 333 328 352 31 357 29 63 34